Flag for U.S.A. Weather past 2 weeks in Barrow, Alaska, U.S.A.

Now
-6 °F

Scattered clouds.


Feels Like: -24 °F
Forecast: -6 / -2 °F
Wind: 10 mph from Northeast

Location: Post Rogers Memorial Airport

Current Time: Mar 27, 2015 at 9:14:01 PM

Latest Report: Mar 27, 2015 at 8:53 PM


Visibility: 9 mi

Pressure: 29.78 "Hg

Humidity: N/A

Dew point: N/A

Location of BarrowLocation

Historic Weather in Barrow — Graph

°F

Barrow temperature yesterday

Maximum temperature yesterday: 1 °F (at 3:04 PM)
Minimum temperature yesterday: -13 °F (at 4:53 AM)
Average temperature yesterday: -4 °F

Past Weeks' High & Low Weather Summary

 TemperatureHumidityPressure
High3 °F (Mar 22, 11:53 AM)91% (Mar 22, 4:53 AM)30.40 "Hg (Mar 22, 4:53 AM)
Low-35 °F (Mar 13, 7:53 AM)67% (Mar 14, 3:53 AM)29.65 "Hg (Mar 26, 8:02 PM)
Average-11 °F79%30.04 "Hg
* Reported Mar 12 7:53 PM — Mar 27 7:53 PM, Barrow, Weather by CustomWeather, © 2015

Note: Actual official high and low records may vary slightly from our data, if they occured in-between our weather recording intervals... More about our weather records

Advertising

Barrow weather history for previous 24 hours

 ConditionsComfort  
Time TempWeatherWind HumidityBarometerVisibility
7:53 PM
Fri, Mar 27
-4 °FPartly sunny.9 mph79%29.77 "Hg10 mi
6:53 PM-4 °FOvercast.9 mph83%29.76 "Hg10 mi
5:53 PM-3 °FPartly sunny.8 mph78%29.75 "Hg10 mi
4:53 PM-2 °FSunny.8 mph78%29.75 "Hg10 mi
3:53 PM-1 °FScattered clouds.9 mph75%29.74 "Hg10 mi
2:53 PM-2 °FBroken clouds.8 mph78%29.74 "Hg7 mi
1:53 PM-3 °FLight snow. Broken clouds.8 mph78%29.73 "Hg6 mi
12:53 PM-4 °FBroken clouds.9 mph79%29.72 "Hg10 mi
11:53 AM-4 °FPartly sunny.9 mph79%29.71 "Hg7 mi
10:53 AM-4 °FLight snow. Ice fog.9 mph83%29.70 "Hg2 mi
9:53 AM-4 °FLight snow. Mostly cloudy.10 mph79%29.70 "Hg7 mi
8:53 AM-4 °FLight snow. Overcast.9 mph83%29.69 "Hg7 mi
7:53 AM-4 °FLight snow. Passing clouds.9 mph83%29.69 "Hg7 mi
6:53 AM-3 °FLight snow. Overcast.8 mph82%29.68 "Hg8 mi
5:53 AM-3 °FLight snow. Overcast.9 mph82%29.68 "Hg6 mi
4:53 AM-2 °FLight snow. Overcast.9 mph78%29.68 "Hg4 mi
3:53 AM-2 °FLight snow. Mostly cloudy.8 mph83%29.67 "Hg5 mi
3:02 AM-2 °FLight snow. Low clouds.9 mph83%29.67 "Hg10 mi
2:53 AM-2 °FOvercast.9 mph83%29.67 "Hg10 mi
1:53 AM-1 °FLow clouds.8 mph79%29.67 "Hg10 mi
12:53 AM-1 °FLow clouds.9 mph82%29.67 "Hg10 mi
11:53 PM
Thu, Mar 26
-1 °FLow clouds.8 mph82%29.66 "Hg10 mi
10:53 PM-1 °FLow clouds.7 mph82%29.66 "Hg10 mi
9:53 PM-2 °FIce fog.6 mph83%29.67 "Hg3 mi
Weather by CustomWeather, © 2015

See weather overviewHow to use our weather pages